| time (UTC) | temp C | wind direction | speed KPH | gust KPH | rain 1hr cm | rain 24hr cm | rain mn cm | humidity % | barometer mb |
| 20260508044022 | 11 | 0.0 | 0.0 | 0.00 | 0.05 | 0.00 | 97 | 1016.7 | |
| 20260508043042 | 11 | 0.0 | 0.0 | 0.00 | 0.05 | 0.00 | 97 | 1016.6 | |
| 20260508042021 | 11 | 0.0 | 0.0 | 0.00 | 0.05 | 0.00 | 97 | 1016.6 | |
| 20260508041041 | 11 | 0.0 | 0.0 | 0.00 | 0.05 | 0.00 | 97 | 1016.5 | |
| 20260508040044 | 11 | 0.0 | 0.0 | 0.00 | 0.05 | 0.05 | 97 | 1016.4 | |
| 20260508035021 | 11 | 0.0 | 0.0 | 0.00 | 0.05 | 0.05 | 97 | 1016.1 | |
| 20260508034020 | 11 | 0.0 | 0.0 | 0.00 | 0.05 | 0.05 | 97 | 1016.1 | |
| 20260508033543 | 11 | 0.0 | 0.0 | 0.00 | 0.05 | 0.05 | 96 | 1016.1 | |
| 20260508032520 | 11 | 0.0 | 0.0 | 0.00 | 0.05 | 0.05 | 96 | 1015.8 | |
| 20260508031520 | 12 | 0.0 | 0.0 | 0.00 | 0.05 | 0.05 | 96 | 1016.1 | |
| 20260508030522 | 12 | 0.0 | 1.6 | 0.00 | 0.05 | 0.05 | 96 | 1016.0 | |
| 20260508025522 | 12 | 0.0 | 0.0 | 0.00 | 0.05 | 0.05 | 96 | 1016.0 | |
| 20260508024520 | 12 | 0.0 | 1.6 | 0.00 | 0.05 | 0.05 | 96 | 1015.8 | |
| 20260508023520 | 12 | 0.0 | 1.6 | 0.00 | 0.05 | 0.05 | 96 | 1015.6 | |
| 20260508022522 | 12 | 0.0 | 0.0 | 0.00 | 0.05 | 0.05 | 96 | 1015.7 | |
| 20260508021522 | 12 | 0.0 | 1.6 | 0.00 | 0.05 | 0.05 | 96 | 1015.6 | |
| 20260508020522 | 12 | 0.0 | 0.0 | 0.00 | 0.05 | 0.05 | 96 | 1015.5 | |
| 20260508015601 | 12 | 0.0 | 0.0 | 0.00 | 0.05 | 0.05 | 96 | 1015.5 | |
| 20260508014522 | 12 | 0.0 | 0.0 | 0.00 | 0.05 | 0.05 | 96 | 1015.3 | |
| 20260508013522 | 12 | 0.0 | 0.0 | 0.00 | 0.05 | 0.05 | 96 | 1014.9 | |
| 20260508012522 | 12 | 0.0 | 0.0 | 0.00 | 0.05 | 0.05 | 96 | 1014.5 | |
| 20260508011520 | 12 | 0.0 | 0.0 | 0.00 | 0.05 | 0.05 | 95 | 1014.9 | |
| 20260508010542 | 12 | 0.0 | 0.0 | 0.00 | 0.05 | 0.05 | 95 | 1014.7 | |
| 20260508005542 | 12 | 0.0 | 0.0 | 0.00 | 0.05 | 0.05 | 95 | 1014.6 | |
| 20260508004703 | 13 | 0.0 | 0.0 | 0.00 | 0.05 | 0.05 | 95 | 1014.5 | |
| 20260508003520 | 13 | 0.0 | 0.0 | 0.00 | 0.05 | 0.05 | 95 | 1014.6 | |
| 20260508002542 | 13 | 0.0 | 0.0 | 0.00 | 0.05 | 0.05 | 95 | 1014.4 | |
| 20260508001523 | 13 | 0.0 | 1.6 | 0.05 | 0.05 | 0.05 | 95 | 1014.3 | |
| 20260508000522 | 13 | 0.0 | 0.0 | 0.05 | 0.05 | 0.05 | 95 | 1013.9 | |
| 20260507235522 | 13 | 0.0 | 0.0 | 0.05 | 0.05 | 0.05 | 95 | 1014.0 | |
| 20260507234522 | 13 | 0.0 | 1.6 | 0.05 | 0.05 | 0.05 | 94 | 1014.1 | |
| 20260507233524 | 13 | 0.0 | 1.6 | 0.05 | 0.05 | 0.05 | 95 | 1013.7 | |
| 20260507232542 | 13 | 0.0 | 0.0 | 0.05 | 0.05 | 0.05 | 95 | 1013.7 | |
| 20260507231522 | 13 | 0.0 | 1.6 | 0.00 | 0.00 | 0.00 | 94 | 1013.5 | |
| 20260507230522 | 13 | 0.0 | 1.6 | 0.00 | 0.00 | 0.00 | 94 | 1013.2 | |
| 20260507225522 | 13 | 0.0 | 1.6 | 0.00 | 0.00 | 0.00 | 93 | 1013.1 | |
| 20260507224522 | 13 | 0.0 | 1.6 | 0.00 | 0.00 | 0.00 | 93 | 1013.0 | |
| 20260507223542 | 13 | 0.0 | 1.6 | 0.00 | 0.00 | 0.00 | 93 | 1013.0 | |
| 20260507222522 | 13 | 0.0 | 3.2 | 0.00 | 0.00 | 0.00 | 93 | 1012.9 | |
| 20260507221521 | 13 | 0.0 | 1.6 | 0.00 | 0.00 | 0.00 | 93 | 1013.2 | |
| 20260507220522 | 13 | 0.0 | 4.8 | 0.00 | 0.00 | 0.00 | 93 | 1013.3 | |
| 20260507215522 | 13 | 0.0 | 3.2 | 0.00 | 0.00 | 0.00 | 94 | 1013.6 | |
| 20260507214542 | 13 | 0.0 | 4.8 | 0.00 | 0.00 | 0.00 | 94 | 1013.1 | |
| 20260507213521 | 13 | 0.0 | 1.6 | 0.00 | 0.00 | 0.00 | 94 | 1013.0 | |
| 20260507212522 | 13 | 0.0 | 3.2 | 0.00 | 0.00 | 0.00 | 95 | 1013.1 | |
| 20260507211522 | 13 | 0.0 | 3.2 | 0.00 | 0.00 | 0.00 | 94 | 1013.0 | |
| 20260507210522 | 13 | 0.0 | 1.6 | 0.00 | 0.00 | 0.00 | 94 | 1013.0 | |
| 20260507205542 | 13 | 0.0 | 3.2 | 0.00 | 0.00 | 0.00 | 94 | 1012.9 | |
| 20260507204522 | 13 | 0.0 | 1.6 | 0.00 | 0.00 | 0.00 | 95 | 1012.7 | |
| 20260507203522 | 13 | 0.0 | 4.8 | 0.00 | 0.00 | 0.00 | 96 | 1012.3 | |
| 20260507202542 | 13 | 45 | 1.6 | 6.4 | 0.00 | 0.00 | 0.00 | 95 | 1012.7 |
| 20260507202023 | 13 | 0.0 | 3.2 | 0.00 | 0.00 | 0.00 | 95 | 1012.6 | |
| 20260507201022 | 13 | 0.0 | 4.8 | 0.00 | 0.00 | 0.00 | 96 | 1012.5 | |
| 20260507200022 | 14 | 0.0 | 3.2 | 0.00 | 0.00 | 0.00 | 96 | 1012.4 | |
| 20260507195022 | 14 | 68 | 1.6 | 4.8 | 0.00 | 0.00 | 0.00 | 96 | 1012.4 |
| 20260507194021 | 14 | 0.0 | 3.2 | 0.00 | 0.00 | 0.00 | 97 | 1012.4 | |
| 20260507193022 | 14 | 0.0 | 1.6 | 0.00 | 0.00 | 0.00 | 97 | 1012.5 | |
| 20260507192022 | 14 | 0.0 | 3.2 | 0.00 | 0.00 | 0.00 | 97 | 1012.7 | |
| 20260507191021 | 14 | 0.0 | 3.2 | 0.00 | 0.00 | 0.00 | 97 | 1012.7 | |
| 20260507190021 | 14 | 0.0 | 4.8 | 0.00 | 0.00 | 0.00 | 98 | 1012.6 | |
| 20260507185107 | 13 | 0.0 | 4.8 | 0.00 | 0.00 | 0.00 | 98 | 1012.1 | |
| 20260507184522 | 13 | 0.0 | 3.2 | 0.00 | 0.00 | 0.00 | 98 | 1012.1 | |
| 20260507183521 | 13 | 0.0 | 1.6 | 0.00 | 0.00 | 0.00 | 98 | 1012.5 | |
| 20260507182522 | 13 | 0.0 | 3.2 | 0.00 | 0.00 | 0.00 | 98 | 1012.6 | |
| 20260507181541 | 13 | 0.0 | 3.2 | 0.00 | 0.00 | 0.00 | 98 | 1012.3 | |
| 20260507180522 | 13 | 0.0 | 3.2 | 0.00 | 0.00 | 0.00 | 98 | 1012.2 | |
| 20260507175522 | 13 | 0.0 | 3.2 | 0.00 | 0.00 | 0.00 | 98 | 1012.3 | |
| 20260507174521 | 13 | 0.0 | 3.2 | 0.00 | 0.00 | 0.00 | 97 | 1012.1 | |
| 20260507173521 | 14 | 0.0 | 4.8 | 0.00 | 0.00 | 0.00 | 97 | 1012.6 | |
| 20260507172521 | 14 | 0.0 | 4.8 | 0.00 | 0.00 | 0.00 | 97 | 1012.6 | |
| 20260507171521 | 15 | 0.0 | 3.2 | 0.00 | 0.00 | 0.00 | 97 | 1012.2 | |
| 20260507170521 | 15 | 45 | 1.6 | 4.8 | 0.00 | 0.00 | 0.00 | 97 | 1011.8 |
| 20260507165521 | 15 | 0.0 | 3.2 | 0.00 | 0.00 | 0.00 | 96 | 1011.8 | |
| 20260507164521 | 16 | 45 | 1.6 | 9.7 | 0.00 | 0.00 | 0.00 | 95 | 1012.0 |
| 20260507163521 | 18 | 45 | 1.6 | 4.8 | 0.00 | 0.00 | 0.00 | 96 | 1011.8 |
| 20260507162521 | 19 | 0.0 | 1.6 | 0.00 | 0.00 | 0.00 | 99 | 1011.9 | |
| 20260507161541 | 19 | 0.0 | 0.0 | 0.00 | 0.00 | 0.00 | 99 | 1012.2 | |
| 20260507160522 | 19 | 0.0 | 1.6 | 0.00 | 0.00 | 0.00 | 99 | 1012.6 | |
| 20260507155601 | 19 | 0.0 | 0.0 | 0.00 | 0.00 | 0.00 | 99 | 1012.5 | |
| 20260507154521 | 19 | 0.0 | 1.6 | 0.00 | 0.00 | 0.00 | 99 | 1012.6 | |
| 20260507153521 | 19 | 0.0 | 0.0 | 0.00 | 0.00 | 0.00 | 99 | 1012.3 | |
| 20260507152542 | 19 | 0.0 | 0.0 | 0.00 | 0.00 | 0.00 | 99 | 1012.2 | |
| 20260507151541 | 19 | 0.0 | 0.0 | 0.00 | 0.00 | 0.00 | 99 | 1012.3 | |
| 20260507150521 | 19 | 0.0 | 0.0 | 0.00 | 0.00 | 0.00 | 99 | 1012.5 | |
| 20260507145521 | 19 | 0.0 | 0.0 | 0.00 | 0.00 | 0.00 | 99 | 1012.4 | |
| 20260507144521 | 19 | 0.0 | 0.0 | 0.00 | 0.00 | 0.00 | 99 | 1012.2 | |
| 20260507143521 | 19 | 0.0 | 0.0 | 0.00 | 0.00 | 0.00 | 99 | 1012.2 | |
| 20260507141521 | 19 | 0.0 | 0.0 | 0.00 | 0.00 | 0.00 | 99 | 1012.2 | |
| 20260507140521 | 19 | 0.0 | 0.0 | 0.00 | 0.00 | 0.00 | 99 | 1012.4 | |
| 20260507135521 | 19 | 0.0 | 1.6 | 0.00 | 0.00 | 0.00 | 99 | 1012.4 | |
| 20260507134521 | 19 | 0.0 | 1.6 | 0.00 | 0.00 | 0.00 | 99 | 1012.5 | |
| 20260507133521 | 18 | 0.0 | 0.0 | 0.00 | 0.00 | 0.00 | 99 | 1012.9 | |
| 20260507132521 | 18 | 0.0 | 0.0 | 0.00 | 0.00 | 0.00 | 99 | 1013.0 | |
| 20260507131541 | 18 | 0.0 | 0.0 | 0.00 | 0.00 | 0.00 | 99 | 1013.0 | |
| 20260507130520 | 18 | 0.0 | 0.0 | 0.00 | 0.00 | 0.00 | 99 | 1012.8 | |
| 20260507125521 | 18 | 0.0 | 0.0 | 0.00 | 0.00 | 0.00 | 99 | 1012.7 | |
| 20260507124521 | 18 | 0.0 | 0.0 | 0.00 | 0.00 | 0.00 | 99 | 1012.9 | |
| 20260507123541 | 18 | 0.0 | 0.0 | 0.00 | 0.00 | 0.00 | 99 | 1013.0 | |
| 20260507122521 | 18 | 0.0 | 0.0 | 0.00 | 0.00 | 0.00 | 99 | 1012.8 | |
| 20260507121521 | 18 | 0.0 | 0.0 | 0.00 | 0.00 | 0.00 | 99 | 1012.7 | |
| 20260507120521 | 18 | 0.0 | 0.0 | 0.00 | 0.00 | 0.00 | 99 | 1012.8 | |
| 20260507115520 | 18 | 0.0 | 0.0 | 0.00 | 0.00 | 0.00 | 99 | 1012.8 | |
| 20260507114540 | 18 | 0.0 | 0.0 | 0.00 | 0.00 | 0.00 | 99 | 1012.7 | |
| 20260507114021 | 18 | 0.0 | 0.0 | 0.00 | 0.00 | 0.00 | 99 | 1012.8 | |
| 20260507113020 | 18 | 0.0 | 0.0 | 0.00 | 0.00 | 0.00 | 99 | 1013.3 | |
| 20260507112040 | 18 | 0.0 | 0.0 | 0.00 | 0.00 | 0.00 | 99 | 1013.1 | |
| 20260507111101 | 18 | 0.0 | 0.0 | 0.00 | 0.00 | 0.00 | 99 | 1013.2 | |
| 20260507110020 | 18 | 0.0 | 0.0 | 0.00 | 0.00 | 0.00 | 99 | 1013.3 | |
| 20260507105020 | 18 | 0.0 | 0.0 | 0.00 | 0.00 | 0.00 | 99 | 1012.9 | |
| 20260507104020 | 18 | 0.0 | 0.0 | 0.00 | 0.00 | 0.00 | 99 | 1012.7 | |
| 20260507103041 | 18 | 0.0 | 0.0 | 0.00 | 0.00 | 0.00 | 99 | 1012.9 | |
| 20260507102021 | 18 | 0.0 | 0.0 | 0.00 | 0.00 | 0.00 | 99 | 1013.0 | |
| 20260507101040 | 18 | 0.0 | 1.6 | 0.00 | 0.00 | 0.00 | 99 | 1012.8 | |
| 20260507100022 | 18 | 0.0 | 1.6 | 0.00 | 0.00 | 0.00 | 99 | 1012.8 | |
| 20260507095021 | 18 | 0.0 | 0.0 | 0.00 | 0.00 | 0.00 | 99 | 1012.9 | |
| 20260507094020 | 18 | 0.0 | 0.0 | 0.00 | 0.00 | 0.00 | 99 | 1012.8 | |
| 20260507093020 | 18 | 0.0 | 1.6 | 0.00 | 0.00 | 0.00 | 99 | 1012.9 | |
| 20260507092022 | 18 | 0.0 | 0.0 | 0.00 | 0.00 | 0.00 | 98 | 1012.7 | |
| 20260507091022 | 18 | 0.0 | 1.6 | 0.00 | 0.00 | 0.00 | 98 | 1012.7 | |
| 20260507090020 | 18 | 0.0 | 1.6 | 0.00 | 0.00 | 0.00 | 98 | 1012.8 | |
| 20260507085020 | 18 | 0.0 | 3.2 | 0.00 | 0.00 | 0.00 | 98 | 1012.9 | |
| 20260507084022 | 18 | 0.0 | 1.6 | 0.00 | 0.00 | 0.00 | 98 | 1012.8 | |
| 20260507083022 | 18 | 0.0 | 1.6 | 0.00 | 0.00 | 0.00 | 98 | 1012.8 | |
| 20260507082320 | 18 | 0.0 | 3.2 | 0.00 | 0.00 | 0.00 | 98 | 1013.3 | |
| 20260507081022 | 18 | 0.0 | 0.0 | 0.00 | 0.00 | 0.00 | 98 | 1013.3 | |
| 20260507080042 | 18 | 0.0 | 0.0 | 0.00 | 0.00 | 0.00 | 98 | 1013.2 | |
| 20260507075040 | 18 | 0.0 | 1.6 | 0.00 | 0.00 | 0.00 | 98 | 1012.8 | |
| 20260507074022 | 18 | 0.0 | 1.6 | 0.00 | 0.00 | 0.00 | 98 | 1013.2 | |
| 20260507073022 | 18 | 0.0 | 1.6 | 0.00 | 0.00 | 0.00 | 98 | 1013.5 | |
| 20260507072022 | 18 | 0.0 | 0.0 | 0.00 | 0.00 | 0.00 | 98 | 1013.5 | |
| 20260507071023 | 18 | 0.0 | 0.0 | 0.00 | 0.00 | 0.00 | 98 | 1013.8 | |
| 20260507070022 | 18 | 0.0 | 0.0 | 0.00 | 0.00 | 0.00 | 98 | 1013.7 | |
| 20260507065042 | 18 | 0.0 | 0.0 | 0.00 | 0.00 | 0.00 | 98 | 1013.9 | |
| 20260507064102 | 18 | 0.0 | 0.0 | 0.00 | 0.00 | 0.00 | 98 | 1014.5 | |
| 20260507063022 | 18 | 0.0 | 0.0 | 0.00 | 0.00 | 0.00 | 98 | 1014.8 | |
| 20260507062022 | 18 | 0.0 | 0.0 | 0.00 | 0.00 | 0.00 | 97 | 1014.8 | |
| 20260507061023 | 18 | 0.0 | 0.0 | 0.00 | 0.00 | 0.00 | 97 | 1014.4 | |
| 20260507060200 | 18 | 0.0 | 0.0 | 0.00 | 0.00 | 0.00 | 97 | 1014.4 | |
| 20260507055042 | 18 | 0.0 | 0.0 | 0.00 | 0.00 | 0.00 | 97 | 1014.6 | |
| 20260507054022 | 18 | 0.0 | 0.0 | 0.00 | 0.00 | 0.00 | 97 | 1014.6 | |
| 20260507053022 | 18 | 0.0 | 0.0 | 0.00 | 0.00 | 0.00 | 97 | 1014.7 | |
| 20260507052022 | 18 | 0.0 | 1.6 | 0.00 | 0.00 | 0.00 | 97 | 1014.3 | |
| 20260507051022 | 18 | 0.0 | 3.2 | 0.00 | 0.00 | 0.00 | 96 | 1015.6 | |
| 20260507050022 | 19 | 0.0 | 3.2 | 0.00 | 0.00 | 0.00 | 96 | 1014.9 | |
| 20260507045022 | 19 | 0.0 | 1.6 | 0.00 | 0.00 | 0.00 | 96 | 1014.6 |